Weather WX

World > North America > United States > New Jersey

Longport, New Jersey Regional Weather

Lat: 39.31N, Lon: 74.53W
Wx Zone: NJZ025
Warning FLW WEATHER ALERT - EXCESSIVE HEAT WARNING (More Info. Click Here) Warning
Feedback

Longport, NJ Regional Weather

Expires:201907182200;;270042
ASUS41 KPHI 182112
RWRPHI

REGIONAL WEATHER ROUNDUP
NATIONAL WEATHER SERVICE MOUNT HOLLY NJ
500 PM EDT THU JUL 18 2019

NOTE:  "FAIR" INDICATES FEW OR NO CLOUDS BELOW 12,000 FEET WITH NO
SIGNIFICANT WEATHER AND/OR OBSTRUCTIONS TO VISIBILITY.

 * = STATION DOES NOT REPORT PRECIPITATION (E.G. RAIN, SNOW, ETC.) 
        OR FOG.


NJZ015>026-182200-
SOUTHERN NEW JERSEY
  
CITY           SKY/WX    TMP DP  RH WIND       PRES   REMARKS
POMONA         CLOUDY    80  73  79 E14       29.87R THUNDER          
WILDWOOD*      FAIR      89  77  67 S10       29.85F HX 101           
MILLVILLE      FAIR      88  78  72 W5        29.85S HX 101           
WRIGHTSTOWN    FAIR      76  76 100 CALM      29.84F                  
MOUNT HOLLY      N/A     78  76  93 CALM      29.85S                  
TRENTON        CLOUDY    78  76  93 S3        29.85F                  

$$

SKY/WX - Weather  TMP - Temperature  DP - Dew Point  RH - Relative Humidity
WIND - Wind Direction/Speed PRES - Barometric Pressure VSB - Visibility
WCI - Wind Chill Index E13G22 Wind - East Wind 13 mph/Gusts of 22 mph